When you browse on this site, cookies collect data to enhance your experience and personalize the content and advertising you see.
Visit our Privacy Policy to learn more. By continuing to use the site, you agree to this use of cookies and data.
  • In Hungary
  • List of Countries
  • For 7 days
  • Water Temperature
  • Satellite Maps
  • Weather Map
  • News
  • Weather Widgets
  • user-avatar
    Login

    Hourly Weather Elizavetino

    Today, 20 November, Tuesday

    Time Temperature Precipitation Wind Pressure Humidity
    00:00 -4°C° 0 mm 2 mps 740 mmHg 93%
    01:00 -4°C° 0 mm 2 mps 740 mmHg 95%
    02:00 -4°C° 0 mm 2 mps 740 mmHg 95%
    03:00 -4°C° 0 mm 2 mps 740 mmHg 96%
    04:00 -4°C° 0 mm 2 mps 740 mmHg 96%
    05:00 -4°C° 0.1 mm 2 mps 739 mmHg 96%
    06:00 -4°C° 0.1 mm 2 mps 739 mmHg 96%
    07:00 -4°C° 0.1 mm 2 mps 739 mmHg 96%
    08:00 -3°C° 0.1 mm 2 mps 739 mmHg 95%
    09:00 -3°C° 0.1 mm 2 mps 739 mmHg 94%
    10:00 -3°C° 0.1 mm 2 mps 739 mmHg 93%
    11:00 -3°C° 0.1 mm 2 mps 739 mmHg 91%
    12:00 -2°C° 0.1 mm 2 mps 738 mmHg 90%
    13:00 -2°C° 0.1 mm 2 mps 738 mmHg 88%
    14:00 -2°C° 0.1 mm 2 mps 738 mmHg 89%
    15:00 -2°C° 0.1 mm 2 mps 738 mmHg 90%
    16:00 -3°C° 0.1 mm 2 mps 737 mmHg 92%
    17:00 -3°C° 0 mm 2 mps 737 mmHg 92%
    18:00 -3°C° 0 mm 2 mps 737 mmHg 93%
    19:00 -3°C° 0 mm 2 mps 737 mmHg 94%
    20:00 -2°C° 0 mm 1 mps 736 mmHg 94%
    21:00 -2°C° 0 mm 1 mps 736 mmHg 94%
    22:00 -2°C° 0 mm 1 mps 736 mmHg 94%
    23:00 -4°C° 0 mm 2 mps 735 mmHg 94%

    Tomorrow, 21 November, Wednesday

    Time Temperature Precipitation Wind Pressure Humidity
    00:00 -4°C° 0 mm 2 mps 735 mmHg 93%
    01:00 -4°C° 0 mm 2 mps 735 mmHg 93%
    02:00 -5°C° 0 mm 3 mps 734 mmHg 91%
    03:00 -5°C° 0 mm 3 mps 734 mmHg 90%
    04:00 -7°C° 0 mm 4 mps 733 mmHg 88%
    05:00 -7°C° 0 mm 4 mps 733 mmHg 88%
    06:00 -7°C° 0 mm 4 mps 732 mmHg 87%
    07:00 -7°C° 0 mm 5 mps 731 mmHg 86%
    08:00 -7°C° 0.2 mm 5 mps 731 mmHg 86%
    09:00 -8°C° 0.2 mm 6 mps 730 mmHg 87%
    10:00 -8°C° 0.2 mm 6 mps 730 mmHg 87%
    11:00 -8°C° 0.4 mm 6 mps 729 mmHg 86%
    12:00 -6°C° 0.4 mm 6 mps 728 mmHg 85%
    13:00 -7°C° 0.4 mm 7 mps 728 mmHg 85%
    14:00 -6°C° 0.1 mm 6 mps 727 mmHg 84%
    15:00 -6°C° 0.1 mm 6 mps 727 mmHg 84%
    16:00 -6°C° 0.1 mm 6 mps 727 mmHg 84%
    17:00 -6°C° 0.1 mm 6 mps 727 mmHg 84%
    18:00 -6°C° 0.1 mm 6 mps 726 mmHg 84%
    19:00 -6°C° 0.1 mm 6 mps 726 mmHg 85%
    20:00 -8°C° 0.1 mm 6 mps 726 mmHg 85%
    21:00 -9°C° 0.1 mm 6 mps 726 mmHg 85%
    22:00 -9°C° 0.1 mm 6 mps 726 mmHg 86%
    23:00 -10°C° 0.1 mm 6 mps 726 mmHg 84%

    Day after tomorrow, 22 November, Thursday

    Time Temperature Precipitation Wind Pressure Humidity
    00:00 -10°C° 0.1 mm 6 mps 726 mmHg 83%
    01:00 -10°C° 0.1 mm 6 mps 727 mmHg 82%
    02:00 -10°C° 0 mm 6 mps 727 mmHg 82%
    03:00 -11°C° 0 mm 6 mps 727 mmHg 83%
    04:00 -11°C° 0 mm 6 mps 727 mmHg 83%
    05:00 -12°C° 0 mm 6 mps 727 mmHg 85%
    06:00 -12°C° 0 mm 5 mps 727 mmHg 87%
    07:00 -12°C° 0 mm 5 mps 727 mmHg 89%
    08:00 -12°C° 0.1 mm 5 mps 727 mmHg 86%
    09:00 -11°C° 0.1 mm 5 mps 727 mmHg 84%
    10:00 -11°C° 0.1 mm 6 mps 727 mmHg 81%
    11:00 -11°C° 0.1 mm 6 mps 727 mmHg 78%
    12:00 -11°C° 0.1 mm 5 mps 727 mmHg 76%
    13:00 -11°C° 0.1 mm 5 mps 727 mmHg 73%
    14:00 -10°C° 0 mm 4 mps 727 mmHg 77%
    15:00 -10°C° 0 mm 4 mps 727 mmHg 80%
    16:00 -10°C° 0 mm 3 mps 727 mmHg 83%
    17:00 -10°C° 0 mm 4 mps 726 mmHg 84%
    18:00 -11°C° 0 mm 5 mps 726 mmHg 85%
    19:00 -12°C° 0 mm 7 mps 725 mmHg 85%
    20:00 -11°C° 0.3 mm 7 mps 724 mmHg 86%
    21:00 -11°C° 0.3 mm 8 mps 723 mmHg 86%
    22:00 -11°C° 0.3 mm 9 mps 723 mmHg 87%
    23:00 -11°C° 0.2 mm 9 mps 722 mmHg 87%

    23 November, Friday

    Time Temperature Precipitation Wind Pressure Humidity
    00:00 -11°C° 0.2 mm 9 mps 721 mmHg 86%
    01:00 -11°C° 0.2 mm 8 mps 720 mmHg 86%
    02:00 -11°C° 0.2 mm 8 mps 720 mmHg 87%
    03:00 -11°C° 0.2 mm 8 mps 719 mmHg 87%
    04:00 -11°C° 0.2 mm 8 mps 718 mmHg 88%
    05:00 -11°C° 0.3 mm 7 mps 717 mmHg 89%
    06:00 -11°C° 0.3 mm 7 mps 717 mmHg 89%
    07:00 -10°C° 0.3 mm 6 mps 716 mmHg 90%
    08:00 -8°C° 0.2 mm 5 mps 716 mmHg 91%
    09:00 -8°C° 0.2 mm 5 mps 717 mmHg 91%
    10:00 -8°C° 0.2 mm 4 mps 717 mmHg 92%
    11:00 -8°C° 0.4 mm 5 mps 718 mmHg 92%
    12:00 -8°C° 0.4 mm 5 mps 718 mmHg 92%
    13:00 -9°C° 0.4 mm 6 mps 719 mmHg 92%
    14:00 -12°C° 0.4 mm 7 mps 720 mmHg 90%
    15:00 -14°C° 0.4 mm 9 mps 721 mmHg 89%
    16:00 -15°C° 0.4 mm 10 mps 722 mmHg 88%
    17:00 -15°C° 0.1 mm 10 mps 723 mmHg 86%
    18:00 -15°C° 0.1 mm 10 mps 724 mmHg 84%
    19:00 -17°C° 0.1 mm 10 mps 725 mmHg 83%
    20:00 -16°C° 0 mm 9 mps 726 mmHg 83%
    21:00 -17°C° 0 mm 9 mps 728 mmHg 84%
    22:00 -18°C° 0 mm 8 mps 729 mmHg 84%
    23:00 -18°C° 0 mm 7 mps 730 mmHg 86%

    24 November, Saturday

    Time Temperature Precipitation Wind Pressure Humidity
    00:00 -18°C° 0 mm 7 mps 731 mmHg 88%
    01:00 -17°C° 0 mm 6 mps 732 mmHg 90%
    02:00 -17°C° 0 mm 6 mps 732 mmHg 91%
    03:00 -17°C° 0 mm 5 mps 733 mmHg 92%
    04:00 -17°C° 0 mm 5 mps 734 mmHg 92%
    05:00 -16°C° 0 mm 4 mps 734 mmHg 93%
    06:00 -16°C° 0 mm 4 mps 734 mmHg 94%
    07:00 -15°C° 0 mm 4 mps 734 mmHg 94%
    08:00 -14°C° 0 mm 5 mps 734 mmHg 93%
    09:00 -14°C° 0 mm 6 mps 735 mmHg 91%
    10:00 -12°C° 0 mm 6 mps 735 mmHg 89%
    11:00 -13°C° 0 mm 7 mps 734 mmHg 89%
    12:00 -12°C° 0 mm 7 mps 734 mmHg 88%
    13:00 -12°C° 0 mm 8 mps 734 mmHg 87%
    14:00 -12°C° 0 mm 8 mps 734 mmHg 87%
    15:00 -12°C° 0 mm 8 mps 734 mmHg 87%
    16:00 -13°C° 0 mm 8 mps 733 mmHg 86%
    17:00 -12°C° 0 mm 9 mps 733 mmHg 86%
    18:00 -12°C° 0 mm 9 mps 733 mmHg 86%
    19:00 -11°C° 0 mm 9 mps 733 mmHg 86%
    20:00 -11°C° 0.1 mm 9 mps 732 mmHg 86%
    21:00 -10°C° 0.1 mm 9 mps 732 mmHg 86%
    22:00 -10°C° 0.1 mm 9 mps 732 mmHg 85%
    23:00 -10°C° 0.1 mm 9 mps 732 mmHg 85%

    25 November, Sunday

    Time Temperature Precipitation Wind Pressure Humidity
    00:00 -10°C° 0.1 mm 9 mps 732 mmHg 85%
    01:00 -9°C° 0.1 mm 9 mps 732 mmHg 85%
    02:00 -8°C° 0.1 mm 8 mps 732 mmHg 86%
    03:00 -8°C° 0.1 mm 8 mps 732 mmHg 87%
    04:00 -8°C° 0.1 mm 8 mps 732 mmHg 87%
    05:00 -8°C° 0.1 mm 7 mps 732 mmHg 88%
    06:00 -8°C° 0.1 mm 7 mps 733 mmHg 89%
    07:00 -8°C° 0.1 mm 6 mps 733 mmHg 89%
    08:00 -8°C° 0 mm 6 mps 733 mmHg 89%
    09:00 -8°C° 0 mm 6 mps 734 mmHg 90%
    10:00 -8°C° 0 mm 5 mps 734 mmHg 90%
    11:00 -7°C° 0 mm 5 mps 734 mmHg 89%
    12:00 -7°C° 0 mm 5 mps 734 mmHg 89%
    13:00 -7°C° 0 mm 5 mps 735 mmHg 88%
    14:00 -7°C° 0 mm 5 mps 735 mmHg 89%
    15:00 -7°C° 0 mm 5 mps 734 mmHg 90%
    16:00 -8°C° 0 mm 4 mps 734 mmHg 91%
    17:00 -8°C° 0 mm 4 mps 734 mmHg 92%
    18:00 -8°C° 0 mm 4 mps 735 mmHg 92%
    19:00 -8°C° 0 mm 4 mps 735 mmHg 93%
    20:00 -8°C° 0 mm 4 mps 734 mmHg 93%
    21:00 -8°C° 0 mm 4 mps 734 mmHg 93%
    22:00 -8°C° 0 mm 4 mps 734 mmHg 93%
    23:00 -8°C° 0 mm 4 mps 734 mmHg 94%
    Show more